Regional Weather Roundup
Issued by NWS Goodland, KS

Home | Current Version | Previous Version | Graphics & Text | Print | Product List | Glossary On
Versions: 1 2 3 4 5 6 7 8 9 10 11 12 13 14 15 16 17 18 19 20 21 22 23 24 25 26 27 28 29 30 31 32 33 34 35 36 37 38 39 40 41 42 43 44 45 46 47 48 49 50
000
ASUS43 KGLD 031908
RWRGLD

GOODLAND FORECAST AREA HOURLY WEATHER ROUNDUP
NATIONAL WEATHER SERVICE GOODLAND KS
100 PM MDT THU SEP 03 2015

...OFFICIAL OBSERVATIONS...

CITY           SKY/WX    TMP DP  RH WIND       PRES   REMARKS
GOODLAND KS    PTSUNNY   95  46  18 S10       29.86F
HILL CITY KS   MOSUNNY  100  58  24 S14G22    29.79F
IMPERIAL NEB   SUNNY     94  56  27 VRB6      29.83F
MCCOOK NEB     MOSUNNY   96  57  27 SE12G18   29.79F
AKRON CO       CLOUDY    85  45  24 NW16      29.95F
BURLINGTON CO  PTSUNNY   89  51  27 S8        29.91F
LIMON CO       PTSUNNY   85  45  24 N18G25    30.01F
$$

...UNOFFICIAL OBSERVATIONS...

CITY           SKY/WX    TMP DP  RH WIND       PRES   REMARKS
COLBY KS       SUNNY     99  57  25 S13G21    29.84F
GOVE KS          N/A     95  32  11 MISG        N/A
LENORA KS        N/A     94  32  11 MISG        N/A
NORTON KS      SUNNY     93  52  24 S13G20    29.79F
TRENTON NEB      N/A     95  32  11 SE12        N/A
KIT CARSON CO    N/A     91  51  25 MISG        N/A
YUMA CO          N/A     91  47  21 CALM        N/A
$$



USA.gov is the U.S. government's official web portal to all federal, state and local government web resources and services.